Time,TemperatureF,DewpointF,PressureIn,WindDirection,WindDirectionDegrees,WindSpeedMPH,WindSpeedGustMPH,Humidity,HourlyPrecipIn,Conditions,Clouds,dailyrainin,SolarRadiationWatts/m^2,SoftwareType,DateUTC
2013-05-29 00:02:00,71.0,68.0,-100.00,East,84,1.0,-999.0,90,0.00,,,-99.99,0.000000,,2013-05-29 04:02:00,
2013-05-29 00:13:00,71.0,68.0,-100.00,East,86,1.0,-999.0,91,0.00,,,-99.99,0.000000,,2013-05-29 04:13:00,
2013-05-29 00:23:00,71.0,68.0,-100.00,East,86,1.0,-999.0,91,0.00,,,-99.99,0.000000,,2013-05-29 04:23:00,
2013-05-29 00:33:00,70.0,68.0,-100.00,East,86,1.0,-999.0,92,0.00,,,-99.99,0.000000,,2013-05-29 04:33:00,
2013-05-29 00:42:00,70.0,68.0,-100.00,East,80,1.0,-999.0,93,0.00,,,-99.99,0.000000,,2013-05-29 04:42:00,
2013-05-29 00:53:00,70.0,68.0,-100.00,East,80,1.0,-999.0,93,0.00,,,-99.99,0.000000,,2013-05-29 04:53:00,
2013-05-29 01:02:00,70.0,68.0,-100.00,ENE,59,1.0,-999.0,93,0.00,,,-99.99,0.000000,,2013-05-29 05:02:00,
2013-05-29 01:12:00,70.0,68.0,-100.00,ESE,110,1.0,-999.0,94,0.00,,,-99.99,0.000000,,2013-05-29 05:12:00,
2013-05-29 01:22:00,70.0,68.0,-100.00,ESE,110,1.0,-999.0,94,0.00,,,-99.99,0.000000,,2013-05-29 05:22:00,
2013-05-29 01:32:00,70.0,68.0,-100.00,ENE,73,1.0,-999.0,94,0.00,,,-99.99,0.000000,,2013-05-29 05:32:00,
2013-05-29 01:42:00,69.0,68.0,-100.00,NNE,18,0.0,-999.0,94,0.00,,,-99.99,0.000000,,2013-05-29 05:42:00,
2013-05-29 01:52:00,69.0,68.0,-100.00,NNE,18,0.0,-999.0,94,0.00,,,-99.99,0.000000,,2013-05-29 05:52:00,
2013-05-29 02:01:00,69.0,68.0,-100.00,East,92,1.0,-999.0,94,0.00,,,-99.99,0.000000,,2013-05-29 06:01:00,
2013-05-29 02:12:00,69.0,68.0,-100.00,SSE,156,1.0,-999.0,95,0.00,,,-99.99,0.000000,,2013-05-29 06:12:00,
2013-05-29 02:21:00,69.0,68.0,-100.00,SSE,156,1.0,-999.0,95,0.00,,,-99.99,0.000000,,2013-05-29 06:21:00,
2013-05-29 02:32:00,69.0,68.0,-100.00,East,94,1.0,-999.0,95,0.00,,,-99.99,0.000000,,2013-05-29 06:32:00,
2013-05-29 02:42:00,69.0,68.0,-100.00,NNE,17,1.0,-999.0,95,0.00,,,-99.99,0.000000,,2013-05-29 06:42:00,
2013-05-29 02:52:00,69.0,68.0,-100.00,NNE,17,1.0,-999.0,95,0.00,,,-99.99,0.000000,,2013-05-29 06:52:00,
2013-05-29 03:01:00,69.0,68.0,-100.00,ENE,58,1.0,-999.0,95,0.00,,,-99.99,0.000000,,2013-05-29 07:01:00,
2013-05-29 03:12:00,69.0,68.0,-100.00,NNE,29,1.0,-999.0,95,0.00,,,-99.99,0.000000,,2013-05-29 07:12:00,
2013-05-29 03:21:00,69.0,68.0,-100.00,NNE,29,1.0,-999.0,95,0.00,,,-99.99,0.000000,,2013-05-29 07:21:00,
2013-05-29 03:34:00,69.0,68.0,-100.00,NE,36,1.0,-999.0,96,0.00,,,-99.99,0.000000,,2013-05-29 07:34:00,
2013-05-29 03:42:00,69.0,68.0,-100.00,NNE,20,1.0,-999.0,96,0.00,,,-99.99,0.000000,,2013-05-29 07:42:00,
2013-05-29 03:52:00,69.0,68.0,-100.00,NNE,20,1.0,-999.0,96,0.00,,,-99.99,0.000000,,2013-05-29 07:52:00,
2013-05-29 04:02:00,68.0,67.0,-100.00,NE,37,0.0,-999.0,96,0.00,,,-99.99,0.000000,,2013-05-29 08:02:00,
2013-05-29 04:11:00,68.0,67.0,-100.00,NE,50,1.0,-999.0,96,0.00,,,-99.99,0.000000,,2013-05-29 08:11:00,
2013-05-29 04:22:00,68.0,67.0,-100.00,NE,50,1.0,-999.0,96,0.00,,,-99.99,0.000000,,2013-05-29 08:22:00,
2013-05-29 04:32:00,69.0,68.0,-100.00,ENE,59,1.0,-999.0,96,0.00,,,-99.99,0.000000,,2013-05-29 08:32:00,
2013-05-29 04:42:00,68.0,67.0,-100.00,NE,54,1.0,-999.0,96,0.00,,,-99.99,0.000000,,2013-05-29 08:42:00,
2013-05-29 04:52:00,68.0,67.0,-100.00,NE,54,1.0,-999.0,96,0.00,,,-99.99,0.000000,,2013-05-29 08:52:00,
2013-05-29 05:01:00,69.0,68.0,-100.00,ENE,58,1.0,-999.0,96,0.00,,,-99.99,0.000000,,2013-05-29 09:01:00,
2013-05-29 05:11:00,69.0,68.0,-100.00,NNE,25,1.0,-999.0,96,0.00,,,-99.99,0.000000,,2013-05-29 09:11:00,
2013-05-29 05:21:00,69.0,68.0,-100.00,NNE,25,1.0,-999.0,96,0.00,,,-99.99,0.000000,,2013-05-29 09:21:00,
2013-05-29 05:33:00,70.0,69.0,-100.00,ENE,64,1.0,-999.0,96,0.00,,,-99.99,0.000000,,2013-05-29 09:33:00,
2013-05-29 05:42:00,69.0,68.0,-100.00,East,99,1.0,-999.0,96,0.00,,,-99.99,0.000000,,2013-05-29 09:42:00,
2013-05-29 05:52:00,69.0,68.0,-100.00,East,99,1.0,-999.0,96,0.00,,,-99.99,0.000000,,2013-05-29 09:52:00,
2013-05-29 06:03:00,69.0,68.0,-100.00,NE,54,1.0,-999.0,96,0.00,,,-99.99,0.000000,,2013-05-29 10:03:00,
2013-05-29 06:12:00,69.0,68.0,-100.00,NE,46,1.0,-999.0,97,0.00,,,-99.99,0.000000,,2013-05-29 10:12:00,
2013-05-29 06:22:00,69.0,68.0,-100.00,NE,46,1.0,-999.0,97,0.00,,,-99.99,0.000000,,2013-05-29 10:22:00,
2013-05-29 06:32:00,69.0,68.0,-100.00,ENE,75,1.0,-999.0,97,0.00,,,-99.99,0.100000,,2013-05-29 10:32:00,
2013-05-29 06:42:00,69.0,68.0,-100.00,ENE,67,1.0,-999.0,97,0.00,,,-99.99,1.600000,,2013-05-29 10:42:00,
2013-05-29 06:53:00,69.0,68.0,-100.00,ENE,67,1.0,-999.0,97,0.00,,,-99.99,1.600000,,2013-05-29 10:53:00,
2013-05-29 07:02:00,69.0,69.0,-100.00,East,92,1.0,-999.0,97,0.00,,,-99.99,8.000000,,2013-05-29 11:02:00,
2013-05-29 07:12:00,70.0,69.0,-100.00,ENE,59,1.0,-999.0,97,0.00,,,-99.99,23.900000,,2013-05-29 11:12:00,
2013-05-29 07:22:00,70.0,69.0,-100.00,ENE,59,1.0,-999.0,97,0.00,,,-99.99,23.900000,,2013-05-29 11:22:00,
2013-05-29 07:32:00,70.0,69.0,-100.00,NE,39,1.0,-999.0,97,0.00,,,-99.99,49.299999,,2013-05-29 11:32:00,
2013-05-29 07:42:00,71.0,71.0,-100.00,ENE,66,2.0,-999.0,97,0.00,,,-99.99,85.000000,,2013-05-29 11:42:00,
2013-05-29 07:52:00,71.0,71.0,-100.00,ENE,66,2.0,-999.0,97,0.00,,,-99.99,85.000000,,2013-05-29 11:52:00,
2013-05-29 08:01:00,73.0,72.0,-100.00,East,82,2.0,-999.0,96,0.00,,,-99.99,166.600006,,2013-05-29 12:01:00,
2013-05-29 08:11:00,74.0,73.0,-100.00,East,91,2.0,-999.0,95,0.00,,,-99.99,212.399994,,2013-05-29 12:11:00,
2013-05-29 08:22:00,74.0,73.0,-100.00,East,91,2.0,-999.0,95,0.00,,,-99.99,212.399994,,2013-05-29 12:22:00,
2013-05-29 08:32:00,75.0,73.0,-100.00,East,99,3.0,-999.0,94,0.00,,,-99.99,258.299988,,2013-05-29 12:32:00,
2013-05-29 08:42:00,76.0,74.0,-100.00,East,92,4.0,-999.0,91,0.00,,,-99.99,309.000000,,2013-05-29 12:42:00,
2013-05-29 08:52:00,76.0,74.0,-100.00,East,92,4.0,-999.0,91,0.00,,,-99.99,309.000000,,2013-05-29 12:52:00,
2013-05-29 09:02:00,76.0,74.0,-100.00,East,92,4.0,-999.0,91,0.00,,,-99.99,309.000000,,2013-05-29 13:02:00,
2013-05-29 09:11:00,80.0,74.0,-100.00,ESE,115,4.0,-999.0,82,0.00,,,-99.99,357.299988,,2013-05-29 13:11:00,
2013-05-29 09:21:00,80.0,74.0,-100.00,ESE,115,4.0,-999.0,82,0.00,,,-99.99,357.299988,,2013-05-29 13:21:00,
2013-05-29 09:32:00,80.0,73.0,-100.00,SE,139,3.0,-999.0,79,0.00,,,-99.99,284.399994,,2013-05-29 13:32:00,
2013-05-29 09:42:00,82.0,74.0,-100.00,SE,139,3.0,-999.0,77,0.00,,,-99.99,484.100006,,2013-05-29 13:42:00,
2013-05-29 09:53:00,82.0,74.0,-100.00,SE,139,3.0,-999.0,77,0.00,,,-99.99,484.100006,,2013-05-29 13:53:00,
2013-05-29 10:02:00,82.0,72.0,-100.00,SE,128,4.0,-999.0,73,0.00,,,-99.99,338.500000,,2013-05-29 14:02:00,
2013-05-29 10:11:00,83.0,73.0,-100.00,ESE,108,4.0,-999.0,73,0.00,,,-99.99,484.799988,,2013-05-29 14:11:00,
2013-05-29 10:21:00,83.0,73.0,-100.00,ESE,108,4.0,-999.0,73,0.00,,,-99.99,484.799988,,2013-05-29 14:21:00,
2013-05-29 10:32:00,82.0,72.0,-100.00,East,97,5.0,-999.0,72,0.00,,,-99.99,476.000000,,2013-05-29 14:32:00,
2013-05-29 10:42:00,84.0,73.0,-100.00,SE,133,4.0,-999.0,70,0.00,,,-99.99,533.299988,,2013-05-29 14:42:00,
2013-05-29 10:52:00,84.0,73.0,-100.00,SE,133,4.0,-999.0,70,0.00,,,-99.99,533.299988,,2013-05-29 14:52:00,
2013-05-29 11:01:00,84.0,72.0,-100.00,ESE,113,5.0,-999.0,68,0.00,,,-99.99,607.000000,,2013-05-29 15:01:00,
2013-05-29 11:11:00,85.0,73.0,-100.00,East,93,5.0,-999.0,66,0.00,,,-99.99,811.000000,,2013-05-29 15:11:00,
2013-05-29 11:21:00,85.0,73.0,-100.00,East,93,5.0,-999.0,66,0.00,,,-99.99,811.000000,,2013-05-29 15:21:00,
2013-05-29 11:33:00,85.0,72.0,-100.00,ESE,119,5.0,-999.0,65,0.00,,,-99.99,690.799988,,2013-05-29 15:33:00,
2013-05-29 11:42:00,84.0,72.0,-100.00,SSE,147,4.0,-999.0,67,0.00,,,-99.99,573.599976,,2013-05-29 15:42:00,
2013-05-29 11:53:00,84.0,72.0,-100.00,SSE,147,4.0,-999.0,67,0.00,,,-99.99,573.599976,,2013-05-29 15:53:00,
2013-05-29 12:03:00,83.0,73.0,-100.00,ESE,110,4.0,-999.0,70,0.00,,,-99.99,571.599976,,2013-05-29 16:03:00,
2013-05-29 12:12:00,84.0,72.0,-100.00,East,99,5.0,-999.0,66,0.00,,,-99.99,517.200012,,2013-05-29 16:12:00,
2013-05-29 12:22:00,84.0,72.0,-100.00,East,99,5.0,-999.0,66,0.00,,,-99.99,517.200012,,2013-05-29 16:22:00,
2013-05-29 12:32:00,84.0,72.0,-100.00,ESE,102,4.0,-999.0,67,0.00,,,-99.99,353.299988,,2013-05-29 16:32:00,
2013-05-29 12:42:00,85.0,71.0,-100.00,SE,141,4.0,-999.0,64,0.00,,,-99.99,621.299988,,2013-05-29 16:42:00,
2013-05-29 12:52:00,85.0,71.0,-100.00,SE,141,4.0,-999.0,64,0.00,,,-99.99,621.299988,,2013-05-29 16:52:00,
2013-05-29 13:02:00,87.0,72.0,-100.00,ESE,102,5.0,-999.0,61,0.00,,,-99.99,1005.000000,,2013-05-29 17:02:00,
2013-05-29 13:12:00,87.0,72.0,-100.00,ESE,103,5.0,-999.0,60,0.00,,,-99.99,768.000000,,2013-05-29 17:12:00,
2013-05-29 13:22:00,87.0,72.0,-100.00,ESE,103,5.0,-999.0,60,0.00,,,-99.99,768.000000,,2013-05-29 17:22:00,
2013-05-29 13:32:00,86.0,71.0,-100.00,ESE,114,5.0,-999.0,59,0.00,,,-99.99,743.000000,,2013-05-29 17:32:00,
2013-05-29 13:42:00,88.0,72.0,-100.00,SE,127,5.0,-999.0,58,0.00,,,-99.99,906.000000,,2013-05-29 17:42:00,
2013-05-29 13:52:00,88.0,72.0,-100.00,SE,127,5.0,-999.0,58,0.00,,,-99.99,906.000000,,2013-05-29 17:52:00,
2013-05-29 14:01:00,86.0,71.0,-100.00,SE,136,5.0,-999.0,60,0.00,,,-99.99,746.000000,,2013-05-29 18:01:00,
2013-05-29 14:13:00,86.0,71.0,-100.00,ESE,114,4.0,-999.0,60,0.00,,,-99.99,698.000000,,2013-05-29 18:13:00,
2013-05-29 14:22:00,86.0,71.0,-100.00,ESE,114,4.0,-999.0,60,0.00,,,-99.99,698.000000,,2013-05-29 18:22:00,
2013-05-29 14:32:00,86.0,71.0,-100.00,SE,146,4.0,-999.0,61,0.00,,,-99.99,531.000000,,2013-05-29 18:32:00,
2013-05-29 14:42:00,87.0,71.0,-100.00,SE,127,5.0,-999.0,59,0.00,,,-99.99,750.000000,,2013-05-29 18:42:00,
2013-05-29 14:52:00,87.0,71.0,-100.00,SE,127,5.0,-999.0,59,0.00,,,-99.99,750.000000,,2013-05-29 18:52:00,
2013-05-29 15:02:00,87.0,71.0,-100.00,SE,141,5.0,-999.0,58,0.00,,,-99.99,825.000000,,2013-05-29 19:02:00,
2013-05-29 15:11:00,88.0,70.0,-100.00,ESE,119,5.0,-999.0,56,0.00,,,-99.99,806.000000,,2013-05-29 19:11:00,
2013-05-29 15:21:00,88.0,70.0,-100.00,ESE,119,5.0,-999.0,56,0.00,,,-99.99,806.000000,,2013-05-29 19:21:00,
2013-05-29 15:32:00,87.0,70.0,-100.00,ESE,103,5.0,-999.0,57,0.00,,,-99.99,811.000000,,2013-05-29 19:32:00,
2013-05-29 15:44:00,87.0,70.0,-100.00,ESE,119,5.0,-999.0,57,0.00,,,-99.99,743.000000,,2013-05-29 19:44:00,
2013-05-29 15:53:00,87.0,70.0,-100.00,ESE,119,5.0,-999.0,57,0.00,,,-99.99,743.000000,,2013-05-29 19:53:00,
2013-05-29 16:03:00,87.0,71.0,-100.00,East,100,5.0,-999.0,58,0.00,,,-99.99,698.200012,,2013-05-29 20:03:00,
2013-05-29 16:11:00,85.0,71.0,-100.00,East,88,6.0,-999.0,62,0.00,,,-99.99,553.200012,,2013-05-29 20:11:00,
2013-05-29 16:23:00,85.0,71.0,-100.00,East,88,6.0,-999.0,62,0.00,,,-99.99,553.200012,,2013-05-29 20:23:00,
2013-05-29 16:33:00,84.0,71.0,-100.00,ESE,106,5.0,-999.0,65,0.00,,,-99.99,296.000000,,2013-05-29 20:33:00,
2013-05-29 16:42:00,84.0,71.0,-100.00,ESE,106,5.0,-999.0,65,0.00,,,-99.99,296.000000,,2013-05-29 20:42:00,
2013-05-29 16:53:00,85.0,71.0,-100.00,East,99,5.0,-999.0,64,0.00,,,-99.99,473.399994,,2013-05-29 20:53:00,
2013-05-29 17:02:00,85.0,71.0,-100.00,ESE,111,5.0,-999.0,62,0.00,,,-99.99,504.299988,,2013-05-29 21:02:00,
2013-05-29 17:12:00,86.0,71.0,-100.00,ESE,102,5.0,-999.0,60,0.00,,,-99.99,543.099976,,2013-05-29 21:12:00,
2013-05-29 17:22:00,86.0,71.0,-100.00,ESE,102,5.0,-999.0,60,0.00,,,-99.99,543.099976,,2013-05-29 21:22:00,
2013-05-29 17:33:00,85.0,71.0,-100.00,ESE,118,4.0,-999.0,62,0.00,,,-99.99,398.500000,,2013-05-29 21:33:00,
2013-05-29 17:43:00,85.0,71.0,-100.00,ESE,106,5.0,-999.0,63,0.00,,,-99.99,398.700012,,2013-05-29 21:43:00,
2013-05-29 17:53:00,85.0,71.0,-100.00,ESE,106,5.0,-999.0,63,0.00,,,-99.99,398.700012,,2013-05-29 21:53:00,
2013-05-29 18:03:00,84.0,71.0,-100.00,East,94,6.0,-999.0,66,0.00,,,-99.99,267.600006,,2013-05-29 22:03:00,
2013-05-29 18:12:00,83.0,71.0,-100.00,ESE,109,4.0,-999.0,67,0.00,,,-99.99,299.500000,,2013-05-29 22:12:00,
2013-05-29 18:23:00,83.0,71.0,-100.00,ESE,109,4.0,-999.0,67,0.00,,,-99.99,299.500000,,2013-05-29 22:23:00,
2013-05-29 18:33:00,83.0,71.0,-100.00,ESE,109,4.0,-999.0,67,0.00,,,-99.99,299.500000,,2013-05-29 22:33:00,
2013-05-29 18:42:00,83.0,71.0,-100.00,ESE,107,5.0,-999.0,68,0.00,,,-99.99,254.399994,,2013-05-29 22:42:00,
2013-05-29 18:53:00,83.0,71.0,-100.00,ESE,107,5.0,-999.0,68,0.00,,,-99.99,254.399994,,2013-05-29 22:53:00,
2013-05-29 19:02:00,82.0,72.0,-100.00,East,90,6.0,-999.0,70,0.00,,,-99.99,253.199997,,2013-05-29 23:02:00,
2013-05-29 19:12:00,82.0,72.0,-100.00,ESE,112,5.0,-999.0,71,0.00,,,-99.99,182.500000,,2013-05-29 23:12:00,
2013-05-29 19:22:00,82.0,72.0,-100.00,ESE,112,5.0,-999.0,71,0.00,,,-99.99,182.500000,,2013-05-29 23:22:00,
2013-05-29 19:33:00,81.0,71.0,-100.00,East,101,5.0,-999.0,71,0.00,,,-99.99,151.199997,,2013-05-29 23:33:00,
2013-05-29 19:42:00,81.0,71.0,-100.00,East,100,5.0,-999.0,73,0.00,,,-99.99,59.599998,,2013-05-29 23:42:00,
2013-05-29 19:53:00,81.0,71.0,-100.00,East,100,5.0,-999.0,73,0.00,,,-99.99,59.599998,,2013-05-29 23:53:00,
2013-05-29 20:01:00,80.0,71.0,-100.00,East,90,6.0,-999.0,75,0.00,,,-99.99,41.000000,,2013-05-30 00:01:00,
2013-05-29 20:12:00,79.0,71.0,-100.00,ESE,104,4.0,-999.0,76,0.00,,,-99.99,21.799999,,2013-05-30 00:12:00,
2013-05-29 20:21:00,79.0,71.0,-100.00,ESE,104,4.0,-999.0,76,0.00,,,-99.99,21.799999,,2013-05-30 00:21:00,
2013-05-29 20:32:00,78.0,71.0,-100.00,East,91,4.0,-999.0,78,0.00,,,-99.99,4.600000,,2013-05-30 00:32:00,
2013-05-29 20:42:00,78.0,71.0,-100.00,East,96,3.0,-999.0,80,0.00,,,-99.99,1.000000,,2013-05-30 00:42:00,
2013-05-29 20:52:00,78.0,71.0,-100.00,East,96,3.0,-999.0,80,0.00,,,-99.99,1.000000,,2013-05-30 00:52:00,
2013-05-29 21:01:00,77.0,71.0,-100.00,East,101,3.0,-999.0,81,0.00,,,-99.99,0.100000,,2013-05-30 01:01:00,
2013-05-29 21:11:00,77.0,71.0,-100.00,East,95,3.0,-999.0,82,0.00,,,-99.99,0.000000,,2013-05-30 01:11:00,
2013-05-29 21:21:00,77.0,71.0,-100.00,East,95,3.0,-999.0,82,0.00,,,-99.99,0.000000,,2013-05-30 01:21:00,
2013-05-29 21:32:00,77.0,71.0,-100.00,ESE,106,2.0,-999.0,84,0.00,,,-99.99,0.000000,,2013-05-30 01:32:00,
2013-05-29 21:42:00,76.0,71.0,-100.00,ESE,106,2.0,-999.0,85,0.00,,,-99.99,0.000000,,2013-05-30 01:42:00,
2013-05-29 21:52:00,76.0,71.0,-100.00,ESE,106,2.0,-999.0,85,0.00,,,-99.99,0.000000,,2013-05-30 01:52:00,
2013-05-29 22:01:00,76.0,72.0,-100.00,ESE,120,2.0,-999.0,86,0.00,,,-99.99,0.000000,,2013-05-30 02:01:00,
2013-05-29 22:11:00,76.0,72.0,-100.00,East,91,2.0,-999.0,87,0.00,,,-99.99,0.000000,,2013-05-30 02:11:00,
2013-05-29 22:21:00,76.0,72.0,-100.00,East,91,2.0,-999.0,87,0.00,,,-99.99,0.000000,,2013-05-30 02:21:00,
2013-05-29 22:32:00,75.0,72.0,-100.00,East,90,2.0,-999.0,87,0.00,,,-99.99,0.000000,,2013-05-30 02:32:00,
2013-05-29 22:42:00,75.0,72.0,-100.00,East,90,2.0,-999.0,87,0.00,,,-99.99,0.000000,,2013-05-30 02:42:00,
2013-05-29 22:52:00,75.0,72.0,-100.00,East,90,2.0,-999.0,87,0.00,,,-99.99,0.000000,,2013-05-30 02:52:00,
2013-05-29 23:02:00,75.0,72.0,-100.00,East,95,2.0,-999.0,89,0.00,,,-99.99,0.000000,,2013-05-30 03:02:00,
2013-05-29 23:11:00,75.0,71.0,-100.00,East,89,1.0,-999.0,90,0.00,,,-99.99,0.000000,,2013-05-30 03:11:00,
2013-05-29 23:21:00,75.0,71.0,-100.00,East,89,1.0,-999.0,90,0.00,,,-99.99,0.000000,,2013-05-30 03:21:00,
2013-05-29 23:33:00,74.0,72.0,-100.00,East,88,2.0,-999.0,90,0.00,,,-99.99,0.000000,,2013-05-30 03:33:00,
2013-05-29 23:43:00,75.0,72.0,-100.00,ESE,117,1.0,-999.0,91,0.00,,,-99.99,0.000000,,2013-05-30 03:43:00,
2013-05-29 23:53:00,75.0,72.0,-100.00,ESE,117,1.0,-999.0,91,0.00,,,-99.99,0.000000,,2013-05-30 03:53:00,